[[{"header":{"parameterUnit":"m.s-1","parameterCategory":1,"la1":30.2991,"la2":30.254,"lo1":-89.0895,"lo2":-89.0444,"dy":0.0017,"dx":0.0017,"nx":28,"ny":28,"refTime":"2024-04-17T21:00:00:Z","depth":0,"parameterNumber":2,"parameterNumberName":"U-component_of_WINDS"},"data":[0,0,0,0,0,0,0,0,0,0,0,0,0,0,0,0,0,0,0,0,0,0,0,0,0,0,0,0,0,0,0,0,0,0,0,0,0,0,0,0,0,0,0,0,0,0,0,0,0,0,0,0,0,0,0,0,0,0,-0.9611,-0.961,0,-0.9539,-0.9538,-0.9537,-0.9497,-0.9497,-0.9497,-0.9496,-0.9421,-0.9419,-0.9417,0,0,0,0,0,0,0,0,0,0,0,0,0,-0.9715,-0.9714,-0.9611,-0.961,-0.9609,-0.9539,-0.9538,-0.9537,-0.9497,-0.9497,-0.9497,-0.9496,-0.9422,-0.9419,-0.9417,0,0,0,0,0,0,0,0,0,0,0,0,0,-0.9659,-0.9713,-0.9611,-0.9581,-0.9578,-0.9539,-0.9538,-0.9536,-0.9497,-0.9497,-0.9497,-0.9496,-0.9422,-0.9419,-0.9417,-0.9402,0,0,-0.9408,-0.9407,0,0,0,0,0,0,0,0,-0.9662,-0.9655,-0.9586,-0.9583,-0.9579,-0.9527,-0.9547,-0.9491,-0.9497,-0.9527,-0.9496,-0.9496,-0.9456,-0.945,-0.9437,-0.9399,-0.9395,-0.9408,-0.9406,-0.9405,-0.9404,0,0,0,0,0,0,0,-0.9666,-0.9658,-0.9582,-0.9586,-0.9581,-0.9571,-0.9563,-0.9536,-0.9494,-0.9525,-0.9522,-0.9514,-0.9454,-0.944,-0.9435,-0.9394,-0.9408,-0.9405,-0.9403,-0.9402,-0.9341,-0.9341,0,0,0,0,0,0,-0.9675,-0.9662,-0.9585,-0.958,-0.9621,-0.9569,-0.956,-0.9544,-0.9494,-0.9486,-0.9514,-0.9512,-0.9445,-0.9438,-0.9432,-0.9412,-0.9405,-0.9402,-0.94,-0.9341,-0.9341,-0.9341,0,0,0,0,0,0,-0.9678,-0.9669,-0.9588,-0.962,-0.9609,-0.9568,-0.9549,-0.9542,-0.9528,-0.9486,-0.9478,-0.9507,-0.9445,-0.9436,-0.941,-0.9409,-0.9401,-0.9398,-0.9341,-0.9341,-0.9341,-0.9372,0,0,0,0,0,0,-0.9681,-0.967,-0.9664,-0.962,-0.9608,-0.9567,-0.9549,-0.9541,-0.9523,-0.952,-0.9477,-0.947,-0.9444,-0.9415,-0.9407,-0.9405,-0.9396,-0.9341,-0.9341,-0.9341,-0.9371,-0.9373,-0.9375,0,0,0,0,0,-0.9685,-0.9675,-0.9664,-0.9655,-0.9599,-0.9567,-0.956,-0.953,-0.9524,-0.9517,-0.949,-0.9471,-0.9411,-0.9412,-0.9404,-0.94,-0.9341,-0.9341,-0.9341,-0.937,-0.9372,-0.9375,0,0,0,0,0,0,-0.9719,-0.9669,-0.9656,-0.9632,-0.9604,-0.956,-0.9551,-0.9534,-0.9507,-0.9505,-0.9469,-0.946,-0.9437,-0.9416,-0.9419,-0.9384,-0.9374,-0.9372,-0.9398,-0.9401,-0.9403,-0.9408,-0.9393,0,0,0,0,0,-0.9724,-0.9702,-0.9659,-0.9642,-0.9629,-0.9593,-0.9578,-0.9557,-0.9527,-0.9515,-0.9486,-0.9457,-0.9431,-0.9415,-0.9389,-0.9368,-0.9358,-0.9361,-0.9364,-0.9366,-0.9364,-0.9352,-0.9353,-0.9342,-0.9342,-0.9342,0,0,-0.9733,-0.9703,-0.9691,-0.9648,-0.9624,-0.9603,-0.9583,-0.956,-0.9544,-0.9511,-0.9485,-0.9463,-0.9428,-0.9405,-0.9393,-0.9386,-0.9365,-0.9366,-0.9368,-0.9365,-0.9352,-0.9353,-0.9354,-0.9342,-0.9342,-0.9342,0,0,-0.9739,-0.9714,-0.9698,-0.9674,-0.9639,-0.9615,-0.9611,-0.957,-0.9554,-0.9528,-0.9503,-0.9483,-0.9439,-0.9416,-0.9398,-0.9397,-0.9379,-0.939,-0.94,-0.9389,-0.9389,-0.939,-0.9389,-0.939,-0.9389,-0.9389,-0.9389,0,-0.9755,-0.9721,-0.9691,-0.967,-0.9652,-0.9623,-0.9605,-0.9584,-0.9542,-0.953,-0.9524,-0.9469,-0.9444,-0.9415,-0.9415,-0.9402,-0.9396,-0.9394,-0.9392,-0.9392,-0.9392,-0.9391,-0.9391,-0.9391,-0.939,-0.939,-0.939,0,-0.9743,-0.972,-0.9711,-0.9671,-0.9652,-0.9633,-0.96,-0.9585,-0.9567,-0.9544,-0.9517,-0.9486,-0.9453,-0.9445,-0.9427,-0.9414,-0.9411,-0.9399,-0.9387,-0.9395,-0.9394,-0.9393,-0.9393,-0.9392,-0.9392,-0.9391,0,0,-0.9767,-0.9712,-0.9709,-0.9691,-0.965,-0.9632,-0.9612,-0.9581,-0.9568,-0.954,-0.9522,-0.9487,-0.9476,-0.9456,-0.9436,-0.9426,-0.9427,-0.9415,-0.9413,-0.9418,-0.941,-0.9418,-0.9418,-0.9415,-0.9415,-0.9415,-0.9413,0,-0.9767,-0.9729,-0.9702,-0.9675,-0.9654,-0.9626,-0.9609,-0.9582,-0.9561,-0.9539,-0.9515,-0.9491,-0.9478,-0.9466,-0.9455,-0.9429,-0.9424,-0.9429,-0.9398,-0.9397,-0.9406,-0.9418,-0.9426,-0.9426,-0.9412,-0.9412,-0.9412,0,-0.9761,-0.9735,-0.9706,-0.9668,-0.9658,-0.9643,-0.9612,-0.9592,-0.9562,-0.9547,-0.9525,-0.9504,-0.9482,-0.9474,-0.9443,-0.9447,-0.9433,-0.9418,-0.9418,-0.9413,-0.9404,-0.9412,-0.9425,-0.9425,-0.941,-0.941,-0.941,0,-0.9781,-0.9739,-0.9716,-0.9701,-0.9657,-0.9647,-0.9628,-0.9597,-0.958,-0.9554,-0.9542,-0.9514,-0.9498,-0.9476,-0.9448,-0.9445,-0.942,-0.941,-0.9407,-0.9408,-0.9402,-0.9402,-0.9412,-0.9394,-0.9394,-0.9394,-0.9394,0,-0.9783,-0.9766,-0.9724,-0.971,-0.9691,-0.966,-0.9642,-0.9621,-0.9594,-0.9575,-0.955,-0.9533,-0.9497,-0.9476,-0.9454,-0.9432,-0.9425,-0.9412,-0.9407,-0.9414,-0.9416,-0.9404,-0.9403,-0.9394,-0.9394,-0.9394,-0.9394,0,-0.9801,-0.9773,-0.9746,-0.9706,-0.9696,-0.9684,-0.965,-0.9635,-0.9613,-0.959,-0.9582,-0.9547,-0.9521,-0.9491,-0.9455,-0.9441,-0.942,-0.9412,-0.943,-0.9427,-0.9425,-0.9426,-0.9426,-0.9425,-0.941,-0.941,-0.941,0,-0.9804,-0.9791,-0.975,-0.9736,-0.9718,-0.9695,-0.9678,-0.9648,-0.9631,-0.9596,-0.9586,-0.9558,-0.9534,-0.9494,-0.9465,-0.9437,-0.9428,-0.943,-0.9424,-0.9432,-0.9427,-0.9428,-0.9427,-0.9432,-0.9432,-0.9432,-0.9433,0,-0.9812,-0.9799,-0.9775,-0.9747,-0.9727,-0.9704,-0.9679,-0.9669,-0.9633,-0.9616,-0.9589,-0.9571,-0.9535,-0.9507,-0.9477,-0.9457,-0.9439,-0.9435,-0.9433,-0.944,-0.9451,-0.9445,-0.9434,-0.9435,-0.9435,-0.9434,-0.9434,-0.9434,-0.9822,-0.9809,-0.9779,-0.9753,-0.9732,-0.9709,-0.9694,-0.967,-0.9647,-0.9615,-0.9599,-0.9573,-0.9543,-0.95,-0.9481,-0.946,-0.9454,-0.9451,-0.945,-0.945,-0.9452,-0.9455,-0.9455,-0.9454,-0.9454,-0.9454,-0.9454,0,-0.9828,-0.9808,-0.9785,-0.9751,-0.9731,-0.9717,-0.9689,-0.9674,-0.9651,-0.9625,-0.9602,-0.9572,-0.9545,-0.9515,-0.9487,-0.9476,-0.9467,-0.947,-0.9469,-0.9465,-0.9459,-0.9463,-0.9477,-0.9477,-0.9477,-0.9477,-0.9477,-0.9477,-0.9829,-0.9806,-0.979,-0.9756,-0.9735,-0.9709,-0.9695,-0.9674,-0.9653,-0.962,-0.9599,-0.9579,-0.9552,-0.9522,-0.9497,-0.9489,-0.9479,-0.9484,-0.9474,-0.9468,-0.9466,-0.9464,-0.9468,-0.9483,-0.9483,-0.9482,-0.9482,-0.9482]},{"header":{"parameterUnit":"m.s-1","parameterCategory":1,"la1":30.2991,"la2":30.254,"lo1":-89.0895,"lo2":-89.0444,"dy":0.0017,"dx":0.0017,"nx":28,"ny":28,"refTime":"2024-04-17T21:00:00:Z","depth":0,"parameterNumber":3,"parameterNumberName":"V-component_of_WINDS"},"data":[0,0,0,0,0,0,0,0,0,0,0,0,0,0,0,0,0,0,0,0,0,0,0,0,0,0,0,0,0,0,0,0,0,0,0,0,0,0,0,0,0,0,0,0,0,0,0,0,0,0,0,0,0,0,0,0,0,0,3.2077,3.2077,0,3.2053,3.2053,3.2053,3.2047,3.2047,3.2047,3.2048,3.2019,3.2018,3.2017,0,0,0,0,0,0,0,0,0,0,0,0,0,3.2114,3.2114,3.2077,3.2077,3.2077,3.2053,3.2053,3.2053,3.2047,3.2047,3.2047,3.2048,3.202,3.2018,3.2017,0,0,0,0,0,0,0,0,0,0,0,0,0,3.2095,3.2114,3.2077,3.2071,3.207,3.2053,3.2053,3.2053,3.2047,3.2047,3.2048,3.2048,3.202,3.2019,3.2017,3.2003,0,0,3.2013,3.2012,0,0,0,0,0,0,0,0,3.2096,3.2094,3.2072,3.2072,3.2071,3.2054,3.2056,3.2036,3.2047,3.2056,3.2048,3.2048,3.203,3.2028,3.2023,3.2002,3.2001,3.2013,3.2012,3.2011,3.2011,0,0,0,0,0,0,0,3.2098,3.2095,3.2068,3.2072,3.2071,3.2068,3.2066,3.2052,3.2042,3.2055,3.2055,3.2052,3.203,3.2024,3.2022,3.2,3.2013,3.2012,3.2011,3.201,3.1966,3.1966,0,0,0,0,0,0,3.21,3.2096,3.2068,3.2067,3.2084,3.2067,3.2065,3.2059,3.2042,3.204,3.2052,3.2052,3.2026,3.2024,3.2021,3.2003,3.2011,3.201,3.2009,3.1966,3.1966,3.1966,0,0,0,0,0,0,3.2101,3.2098,3.2069,3.2081,3.2077,3.2067,3.206,3.2058,3.2053,3.2039,3.2037,3.2048,3.2026,3.2023,3.2008,3.2002,3.201,3.2008,3.1967,3.1966,3.1966,3.1968,0,0,0,0,0,0,3.2102,3.2098,3.2094,3.2081,3.2077,3.2058,3.206,3.2057,3.2051,3.205,3.2036,3.2033,3.2026,3.201,3.2007,3.2,3.2007,3.1967,3.1967,3.1966,3.1968,3.1967,3.1967,0,0,0,0,0,3.2104,3.2095,3.2094,3.2091,3.2071,3.2058,3.2055,3.2048,3.205,3.2045,3.2036,3.2034,3.2003,3.2008,3.2005,3.1998,3.1968,3.1967,3.1966,3.1968,3.1967,3.1967,0,0,0,0,0,0,3.2106,3.2093,3.2092,3.2079,3.207,3.2057,3.205,3.2048,3.2037,3.2037,3.2028,3.2024,3.201,3.2002,3.2008,3.1983,3.1985,3.1984,3.1988,3.1987,3.1987,3.1988,3.2006,0,0,0,0,0,3.2106,3.2097,3.2085,3.2075,3.207,3.2061,3.2055,3.2051,3.204,3.2036,3.2026,3.2015,3.2003,3.1995,3.1983,3.1967,3.1963,3.196,3.196,3.1959,3.1958,3.1947,3.1946,3.1963,3.1963,3.1963,0,0,3.2103,3.2095,3.209,3.2075,3.2067,3.2057,3.2058,3.2047,3.2039,3.2034,3.2019,3.2011,3.1998,3.1982,3.1975,3.1976,3.1952,3.1958,3.1958,3.1956,3.1946,3.1945,3.1943,3.1962,3.1963,3.1963,0,0,3.2094,3.2088,3.2078,3.2071,3.2059,3.2053,3.2051,3.2038,3.2033,3.2019,3.2014,3.2004,3.1983,3.1974,3.1966,3.1953,3.1949,3.1949,3.1945,3.1936,3.1934,3.1933,3.1927,3.1925,3.1948,3.1948,3.1948,0,3.2093,3.2079,3.2073,3.2063,3.2056,3.2052,3.2041,3.2033,3.2018,3.2013,3.2014,3.1988,3.1979,3.196,3.1957,3.1951,3.1947,3.1951,3.1935,3.1934,3.1932,3.1927,3.1925,3.1948,3.1948,3.1948,3.1948,0,3.2077,3.2067,3.206,3.2047,3.2039,3.2029,3.202,3.2013,3.2009,3.2002,3.1987,3.1975,3.1961,3.1956,3.1952,3.1937,3.1938,3.1937,3.1939,3.1931,3.1925,3.1923,3.1948,3.1948,3.1948,3.1948,0,0,3.2069,3.2053,3.205,3.2044,3.2031,3.2022,3.201,3.1997,3.1991,3.198,3.1969,3.1952,3.1952,3.1943,3.1938,3.1929,3.1918,3.193,3.1929,3.1927,3.1899,3.1899,3.1897,3.1916,3.1916,3.1915,3.19,0,3.2057,3.2039,3.2033,3.2016,3.2006,3.2002,3.1992,3.1982,3.1975,3.1964,3.1956,3.1944,3.1945,3.1939,3.1931,3.1921,3.1912,3.1922,3.1904,3.1904,3.1907,3.1894,3.1894,3.188,3.1898,3.1897,3.1897,0,3.2042,3.2032,3.2015,3.2003,3.1998,3.1989,3.1976,3.1967,3.1955,3.195,3.1941,3.1936,3.1922,3.1926,3.1906,3.1913,3.1905,3.1899,3.1898,3.1896,3.19,3.189,3.1876,3.1873,3.1894,3.1894,3.1894,0,3.2037,3.2019,3.2006,3.2001,3.1986,3.198,3.1974,3.1962,3.1954,3.1942,3.1937,3.1923,3.1916,3.1904,3.1895,3.1899,3.1876,3.1879,3.187,3.1871,3.1865,3.1866,3.1848,3.1862,3.1862,3.1862,3.1862,0,3.2024,3.2014,3.2004,3.1996,3.1983,3.1976,3.1964,3.1956,3.1946,3.1936,3.1931,3.192,3.191,3.1898,3.1891,3.1874,3.1871,3.1866,3.1864,3.1866,3.1866,3.186,3.186,3.1861,3.1861,3.1861,3.1861,0,3.2016,3.2009,3.1995,3.1983,3.1979,3.197,3.1959,3.195,3.1943,3.193,3.1926,3.1915,3.19,3.189,3.1871,3.1867,3.1849,3.1847,3.1853,3.1852,3.1844,3.1844,3.1821,3.1817,3.1834,3.1834,3.1834,0,3.2009,3.2001,3.1987,3.1981,3.1974,3.1963,3.1955,3.1948,3.194,3.1925,3.1918,3.1903,3.1891,3.1868,3.1857,3.1842,3.184,3.1833,3.1837,3.1839,3.1838,3.1839,3.1837,3.1831,3.1831,3.1831,3.1831,0,3.1995,3.1992,3.1982,3.197,3.1961,3.1952,3.1941,3.1936,3.1926,3.1917,3.1903,3.1893,3.1874,3.1859,3.1843,3.1835,3.1831,3.183,3.1827,3.1828,3.1832,3.1829,3.185,3.183,3.183,3.183,3.183,3.1831,3.1987,3.1979,3.1968,3.1957,3.1949,3.1939,3.193,3.1922,3.1911,3.1896,3.1891,3.1876,3.1863,3.1842,3.1833,3.1819,3.182,3.1816,3.1815,3.1814,3.1813,3.1835,3.1817,3.1817,3.1817,3.1817,3.1817,0,3.1973,3.1966,3.1955,3.1941,3.1932,3.193,3.1919,3.191,3.1898,3.1887,3.1875,3.1858,3.1843,3.1831,3.1815,3.1807,3.1805,3.1803,3.1803,3.1801,3.1814,3.1818,3.1805,3.1805,3.1805,3.1805,3.1805,3.1805,3.1964,3.1951,3.1946,3.1928,3.192,3.1907,3.19,3.189,3.1882,3.1863,3.1851,3.1844,3.1832,3.1815,3.1801,3.1798,3.1791,3.179,3.1786,3.1799,3.18,3.1801,3.1805,3.1789,3.1789,3.1774,3.1774,3.1773]}]]